星链-31932 (STARLINK-31932 )

导读 | 星芒AI

STARLINK-31932 是 SpaceX Starlink 卫星互联网项目中的一颗低轨卫星,属于 Starlink 群体的第三批部署任务之一。该卫星于2023年发射,运行在约550公里高度的近地轨道,旨在为全球提供高速、低延迟的宽带互联网服务。作为 Starlink 计划的一部分,它与其他数千颗卫星协同工作,提升全球网络覆盖,特别是在偏远和网络基础设施薄弱的地区。该卫星采用可再生太阳能供电,并具备自动避障功能以确保轨道安全。

基本信息
目录编号:
59929
目录名称:
STARLINK-31932
国际标识:
2024-106H
轨道中心:
EARTH
卫星名称:
星链-31932
卫星全名:
星链-31932 (STARLINK-31932 )
卫星状态:
在轨 (已飞行567 天)
发射日期:
2024-06-01 UTC
国别 :
美国 (US)
星等 :
--
轨道信息
数据来源 国际轨道数据
星历时间: 2025-12-19T19:50:26+0800
16小时前
查看轨道信息
半长轴: 6861.794km
偏心率: 0.0000846
轨道倾角: 42.998°
近地点辐角 311.070°
升交点赤经 62.223°
平近点角 49.008°
近地点: 483.076km
远地点: 484.238km
周期: 94.279分钟
每日圈数: 15.273772
详细信息
固有亮度:
5
最大亮度:
1.5
卫星平台:
Starlink v2.0 mini
覆盖范围:
全球
运营商:
太空探索技术公司
运营商所在国:
美国
制造商(研发单位):
太空探索技术公司
制造商所在国:
美国
使用方式:
暂无
卫星简介
星链(Starlink)计划是由太空探索技术公司(SpaceX)提出的一个巨型低轨卫星互联网星座项目,计划在2019年至2024年间在太空搭建由约1.2万颗卫星组成的“星链”网络,其中1584颗将部署在地球上空550千米处的近地轨道,并从2020年开始工作。该卫星仍在工作。
2D轨道图
3D轨道图
轨道高度分析图
轨道倾角分析图
轨道综合分析图
查看轨道综合分析图